Regional Weather Roundup
Issued by NWS

Home | Current Version | Previous Version | Graphics & Text | Print | Product List | Glossary On
Versions: 1 2 3 4 5 6 7 8 9 10 11 12 13 14 15 16 17 18 19 20 21 22 23 24 25 26 27 28 29 30 31 32 33 34 35 36 37 38 39 40 41 42 43 44 45 46 47 48 49 50
000
ASUS43 KDTX 270901
RWRMI
MICHIGAN HOURLY REGIONAL WEATHER ROUNDUP
NATIONAL WEATHER SERVICE DETROIT/PONTIAC MI
500 AM EDT THU APR 27 2017

NOTE: "FAIR" INDICATES FEW OR NO CLOUDS BELOW 12,000 FEET WITH NO
SIGNIFICANT WEATHER AND/OR OBSTRUCTION TO VISIBILITY.

MIZ047>049-052>055-059>063-066>070-074>076-081>083-271000-
SOUTHEAST LOWER MICHIGAN

CITY           SKY/WX    TMP DP  RH WIND       PRES   REMARKS
ADRIAN         PTCLDY    64  51  62 S14       29.48F
ALMA           CLOUDY    65  56  71 S7        29.41F
ANN ARBOR      MOCLDY    65  52  62 SE8       29.49S
BAD AXE        CLEAR     62  52  70 S9G16     29.49F
CARO           CLOUDY    60  53  75 SE6       29.46F
DETROIT CITY   CLOUDY    63  53  70 S9        29.50F
DETROIT        CLOUDY    63  54  72 S9        29.51S
FLINT          PTCLDY    62  52  69 S12       29.47S
GROSSE ILE     CLOUDY    60  53  75 SW6G20    29.50S
HILLSDALE      CLOUDY    63  52  67 S9        29.45F
HOWELL         CLOUDY    64  51  64 S10       29.47S

CITY           SKY/WX    TMP DP  RH WIND       PRES   REMARKS
JACKSON        CLOUDY    67  52  58 S12G22    29.45F
LAMBERTVILLE   CLOUDY    69  52  55 S7G16     29.50S
LANSING        CLOUDY    67  53  61 S13       29.43F
LAPEER         FAIR      59  52  77 SE10G16   29.49F
MASON          CLOUDY    65  55  69 S9        29.44F
MONROE         CLOUDY    67  54  63 S9        29.50R
MT. CLEMENS    CLOUDY    59  54  84 SE13      29.50F
PONTIAC        PTCLDY    61  52  72 SE7       29.49F
PORT HOPE        N/A     60  53  77 SE8       29.47F
PORT HURON     CLOUDY    59  50  72 SE8       29.52F
TRI CITIES     PTCLDY    66  57  72 S12       29.44S
MIDLAND        FAIR      67  55  66 SE6       29.42S
TROY           CLOUDY    58  51  78 CALM      29.52F
SAGINAW HB     CLOUDY    63  52  67 SE10      29.44F
$$
MIZ043>046-050>051-056>058-064>065-071>073-077>080-271000-
SOUTHWEST LOWER MICHIGAN

CITY           SKY/WX    TMP DP  RH WIND       PRES   REMARKS
BATTLE CREEK   MOCLDY    65  56  72 S8        29.42F
BENTON HARBOR  CLOUDY    61  58  90 S10       29.38F
BIG RAPIDS     CLOUDY    58  56  94 CALM      29.37F
COLDWATER      CLOUDY    67  54  62 S10G18    29.43S
FREMONT        MOCLDY    58  58 100 CALM      29.35F FOG
HOLLAND        CLOUDY    59  58  96 S6        29.38F FOG
GRAND RAPIDS   CLOUDY    61  60  97 S7        29.38F
IONIA          FAIR      65  55  68 S8        29.39F
KALAMAZOO      CLOUDY    64  57  78 S9        29.41F
LUDINGTON      CLOUDY    56  56 100 CALM      29.33F FOG
MARSHALL       CLOUDY    67  55  63 S9G18     29.42S
MOUNT PLEASANT MOCLDY    63  56  80 SE6       29.40S
MUSKEGON       CLOUDY    60  58  92 SE6       29.36F FOG
SOUTH HAVEN    CLOUDY    58  58  99 S5        29.40R
$$
MIZ016>042-271000-
NORTHERN LOWER MICHIGAN

CITY           SKY/WX    TMP DP  RH WIND       PRES   REMARKS
ALPENA         CLOUDY    55  53  93 E7        29.43F
BEAVER ISLAND  RAIN      51  50  99 CALM      29.39S
BELLAIRE       CLOUDY    57  56  94 CALM      29.37F
CADILLAC       CLOUDY    57  56  96 SE3       29.37F
CHARLEVOIX     LGT RAIN  59  59 100 NW3       29.40F
FRANKFORT      CLOUDY    56  54  94 CALM      29.35F FOG
GAYLORD        CLOUDY    61  56  83 CALM      29.39F
GRAYLING       CLOUDY    58  57  95 SE6       29.40F
HARBOR SPRINGS CLOUDY    54  54 100 E5        29.38F FOG
HOUGHTON LAKE  MOCLDY    62  57  83 SE8       29.40F
MANISTEE       CLOUDY    57  57 100 CALM      29.35F FOG
OSCODA         PTCLDY    60  51  73 S14       29.45S
PELLSTON       CLOUDY    51  49  92 CALM      29.39F
ROGERS CITY    CLOUDY    57  54  90 SE5       29.42F
TRAVERSE CITY  CLOUDY    60  57  89 E3        29.33F
$$
MIZ007>008-015-271000-
EASTERN UPPER MICHIGAN

CITY           SKY/WX    TMP DP  RH WIND       PRES   REMARKS
KINROSS        LGT RAIN  49  48  97 E8        29.42F
MACKINAC ISLAN CLOUDY    43  43 100 E13G20    29.40F FOG
NEWBERRY       LGT RAIN  47  47  97 N5        29.40F VSB 1/2
S. S. MARIE    RAIN      54  51  90 E9        29.40F FOG
MUNISING         N/A     36  35  96 N12       29.43F WCI  28
$$
MIZ004>006-011>014-085-271000-
CENTRAL UPPER MICHIGAN

CITY           SKY/WX    TMP DP  RH WIND       PRES   REMARKS
MANISTIQUE     LGT RAIN  40  39  98 N9        29.39S WCI  34
ESCANABA       RAIN      38  38 100 N9        29.39F WCI  31
MENOMINEE      RAIN      42  40  92 N9        29.38F
SAWYER-GWINN   MIX PCPN  33  32  99 N10       29.42F WCI  24
$$
MIZ001>003-009>011-084-271000-
WESTERN UPPER MICHIGAN

CITY           SKY/WX    TMP DP  RH WIND       PRES   REMARKS
IRON MOUNTAIN  LGT RAIN  35  32  88 N9        29.39F WCI  28
HOUGHTON       LGT SNOW  30  26  85 N13       29.46F FOG     WCI  20
IRONWOOD       LGT SNOW  26  25  96 N8        29.52R FOG     WCI  18
$$

ABBREVIATIONS USED IN REMARKS
   TC - TEMPERATURE IN CELSIUS
  WCI - WIND CHILL INDEX
   HX - HEAT INDEX
  VSB - VISIBILITY




USA.gov is the U.S. government's official web portal to all federal, state and local government web resources and services.